• In Czech Republic
  • List of Countries
  • For 7 days
  • Water Temperature
  • Satellite Maps
  • Weather Map
  • Weather Widgets
  • user-avatar
    Login

    Hourly Weather Contla

    Today, 16 January, Tuesday

    Time Temperature Precipitation Wind Pressure Humidity
    00:00 +8°C° 0 mm 1 mps 575 mmHg 63%
    01:00 +7°C° 0 mm 1 mps 574 mmHg 62%
    02:00 +7°C° 0 mm 1 mps 574 mmHg 60%
    03:00 +7°C° 0 mm 1 mps 574 mmHg 59%
    04:00 +7°C° 0 mm 1 mps 574 mmHg 57%
    05:00 +6°C° 0 mm 1 mps 574 mmHg 61%
    06:00 +7°C° 0 mm 1 mps 575 mmHg 55%
    07:00 +9°C° 0 mm 1 mps 576 mmHg 49%
    08:00 +11°C° 0 mm 1 mps 577 mmHg 44%
    09:00 +13°C° 0 mm 2 mps 578 mmHg 39%
    10:00 +15°C° 0 mm 2 mps 579 mmHg 34%
    11:00 +16°C° 0 mm 2 mps 580 mmHg 28%
    12:00 +17°C° 0 mm 3 mps 579 mmHg 31%
    13:00 +17°C° 0 mm 3 mps 579 mmHg 34%
    14:00 +17°C° 0 mm 4 mps 579 mmHg 36%
    15:00 +14°C° 0 mm 4 mps 578 mmHg 46%
    16:00 +12°C° 0 mm 4 mps 577 mmHg 55%
    17:00 +10°C° 0 mm 4 mps 577 mmHg 64%
    18:00 +8°C° 0 mm 4 mps 577 mmHg 68%
    19:00 +7°C° 0 mm 4 mps 577 mmHg 73%
    20:00 +6°C° 0 mm 4 mps 577 mmHg 77%
    21:00 +6°C° 0 mm 4 mps 577 mmHg 78%
    22:00 +6°C° 0 mm 4 mps 577 mmHg 79%
    23:00 +6°C° 0 mm 4 mps 577 mmHg 79%

    Tomorrow, 17 January, Wednesday

    Time Temperature Precipitation Wind Pressure Humidity
    00:00 +5°C° 0 mm 4 mps 577 mmHg 80%
    01:00 +5°C° 0 mm 4 mps 577 mmHg 81%
    02:00 +5°C° 0 mm 3 mps 577 mmHg 82%
    03:00 +4°C° 0 mm 3 mps 577 mmHg 83%
    04:00 +4°C° 0 mm 3 mps 577 mmHg 84%
    05:00 +5°C° 0 mm 2 mps 576 mmHg 86%
    06:00 +4°C° 0 mm 3 mps 577 mmHg 81%
    07:00 +5°C° 0 mm 3 mps 578 mmHg 75%
    08:00 +7°C° 0 mm 3 mps 579 mmHg 70%
    09:00 +9°C° 0 mm 3 mps 579 mmHg 63%
    10:00 +11°C° 0 mm 3 mps 580 mmHg 55%
    11:00 +13°C° 0 mm 4 mps 581 mmHg 48%
    12:00 +13°C° 0 mm 4 mps 580 mmHg 47%
    13:00 +13°C° 0 mm 4 mps 580 mmHg 47%
    14:00 +14°C° 0 mm 4 mps 579 mmHg 46%
    15:00 +13°C° 0 mm 4 mps 579 mmHg 52%
    16:00 +11°C° 0 mm 4 mps 578 mmHg 57%
    17:00 +10°C° 0 mm 4 mps 577 mmHg 63%
    18:00 +8°C° 0 mm 4 mps 577 mmHg 68%
    19:00 +8°C° 0 mm 3 mps 577 mmHg 72%
    20:00 +7°C° 0 mm 3 mps 577 mmHg 77%
    21:00 +5°C° 0 mm 3 mps 577 mmHg 78%
    22:00 +5°C° 0 mm 3 mps 577 mmHg 80%
    23:00 +5°C° 0 mm 3 mps 577 mmHg 82%

    Day after tomorrow, 18 January, Thursday

    Time Temperature Precipitation Wind Pressure Humidity
    00:00 +5°C° 0 mm 2 mps 576 mmHg 83%
    01:00 +5°C° 0 mm 2 mps 576 mmHg 85%
    02:00 +5°C° 0 mm 2 mps 575 mmHg 86%
    03:00 +5°C° 0 mm 2 mps 575 mmHg 87%
    04:00 +5°C° 0 mm 2 mps 575 mmHg 87%
    05:00 +4°C° 0 mm 2 mps 575 mmHg 88%
    06:00 +6°C° 0 mm 2 mps 576 mmHg 83%
    07:00 +7°C° 0 mm 2 mps 577 mmHg 77%
    08:00 +8°C° 0 mm 2 mps 577 mmHg 71%
    09:00 +10°C° 0 mm 2 mps 578 mmHg 62%
    10:00 +13°C° 0 mm 2 mps 579 mmHg 53%
    11:00 +15°C° 0 mm 2 mps 579 mmHg 45%
    12:00 +15°C° 0 mm 2 mps 579 mmHg 43%
    13:00 +16°C° 0 mm 3 mps 578 mmHg 41%
    14:00 +17°C° 0 mm 3 mps 578 mmHg 39%
    15:00 +16°C° 0 mm 3 mps 577 mmHg 44%
    16:00 +14°C° 0 mm 3 mps 577 mmHg 49%
    17:00 +13°C° 0 mm 3 mps 576 mmHg 53%
    18:00 +12°C° 0 mm 2 mps 576 mmHg 59%
    19:00 +10°C° 0 mm 2 mps 576 mmHg 66%
    20:00 +10°C° 0 mm 1 mps 576 mmHg 72%
    21:00 +10°C° 0 mm 1 mps 576 mmHg 74%
    22:00 +9°C° 0 mm 1 mps 576 mmHg 76%
    23:00 +9°C° 0 mm 1 mps 576 mmHg 78%

    19 January, Friday

    Time Temperature Precipitation Wind Pressure Humidity
    00:00 +8°C° 0 mm 1 mps 575 mmHg 78%
    01:00 +8°C° 0 mm 1 mps 574 mmHg 78%
    02:00 +7°C° 0 mm 1 mps 574 mmHg 78%
    03:00 +7°C° 0 mm 1 mps 574 mmHg 76%
    04:00 +7°C° 0 mm 1 mps 574 mmHg 74%
    05:00 +7°C° 0 mm 1 mps 574 mmHg 72%
    06:00 +8°C° 0 mm 1 mps 575 mmHg 66%
    07:00 +10°C° 0 mm 1 mps 576 mmHg 59%
    08:00 +11°C° 0 mm 1 mps 577 mmHg 53%
    09:00 +13°C° 0 mm 1 mps 577 mmHg 46%
    10:00 +15°C° 0 mm 2 mps 578 mmHg 40%
    11:00 +17°C° 0 mm 2 mps 578 mmHg 34%
    12:00 +17°C° 0 mm 3 mps 578 mmHg 32%
    13:00 +18°C° 0 mm 3 mps 577 mmHg 31%
    14:00 +18°C° 0 mm 4 mps 576 mmHg 30%
    15:00 +17°C° 0 mm 3 mps 576 mmHg 35%
    16:00 +16°C° 0 mm 3 mps 575 mmHg 39%
    17:00 +15°C° 0 mm 2 mps 575 mmHg 44%
    18:00 +13°C° 0 mm 2 mps 575 mmHg 50%
    19:00 +12°C° 0 mm 1 mps 575 mmHg 56%
    20:00 +11°C° 0 mm 1 mps 575 mmHg 62%
    21:00 +10°C° 0 mm 1 mps 574 mmHg 64%
    22:00 +10°C° 0 mm 1 mps 574 mmHg 67%
    23:00 +9°C° 0 mm 1 mps 574 mmHg 69%

    20 January, Saturday

    Time Temperature Precipitation Wind Pressure Humidity
    00:00 +9°C° 0 mm 1 mps 573 mmHg 70%
    01:00 +9°C° 0 mm 1 mps 573 mmHg 72%
    02:00 +8°C° 0 mm 1 mps 573 mmHg 73%
    03:00 +8°C° 0 mm 1 mps 573 mmHg 74%
    04:00 +8°C° 0 mm 1 mps 573 mmHg 74%
    05:00 +8°C° 0 mm 1 mps 573 mmHg 75%
    06:00 +9°C° 0 mm 1 mps 574 mmHg 69%
    07:00 +11°C° 0 mm 1 mps 575 mmHg 63%
    08:00 +12°C° 0 mm 1 mps 576 mmHg 57%
    09:00 +14°C° 0 mm 1 mps 576 mmHg 48%
    10:00 +16°C° 0 mm 2 mps 577 mmHg 40%
    11:00 +18°C° 0 mm 2 mps 577 mmHg 31%
    12:00 +18°C° 0 mm 2 mps 577 mmHg 30%
    13:00 +19°C° 0 mm 3 mps 576 mmHg 29%
    14:00 +19°C° 0 mm 3 mps 576 mmHg 27%
    15:00 +18°C° 0 mm 3 mps 575 mmHg 32%
    16:00 +17°C° 0 mm 3 mps 575 mmHg 37%
    17:00 +16°C° 0 mm 2 mps 575 mmHg 41%
    18:00 +15°C° 0 mm 2 mps 574 mmHg 45%
    19:00 +13°C° 0 mm 2 mps 574 mmHg 48%
    20:00 +12°C° 0 mm 1 mps 574 mmHg 51%
    21:00 +11°C° 0 mm 1 mps 574 mmHg 52%
    22:00 +11°C° 0 mm 1 mps 574 mmHg 52%
    23:00 +10°C° 0 mm 1 mps 574 mmHg 53%

    21 January, Sunday

    Time Temperature Precipitation Wind Pressure Humidity
    00:00 +10°C° 0 mm 1 mps 573 mmHg 54%
    01:00 +10°C° 0 mm 1 mps 573 mmHg 56%
    02:00 +9°C° 0 mm 1 mps 572 mmHg 57%
    03:00 +9°C° 0 mm 1 mps 572 mmHg 59%
    04:00 +9°C° 0 mm 1 mps 572 mmHg 60%
    05:00 +9°C° 0 mm 1 mps 572 mmHg 62%
    06:00 +10°C° 0 mm 1 mps 573 mmHg 57%
    07:00 +12°C° 0 mm 1 mps 574 mmHg 52%
    08:00 +13°C° 0 mm 1 mps 576 mmHg 47%
    09:00 +15°C° 0 mm 1 mps 576 mmHg 40%
    10:00 +18°C° 0 mm 1 mps 577 mmHg 33%
    11:00 +20°C° 0 mm 1 mps 577 mmHg 26%
    12:00 +21°C° 0 mm 1 mps 577 mmHg 25%
    13:00 +21°C° 0 mm 1 mps 576 mmHg 24%
    14:00 +21°C° 0 mm 2 mps 576 mmHg 22%
    15:00 +20°C° 0 mm 2 mps 576 mmHg 28%
    16:00 +18°C° 0 mm 2 mps 575 mmHg 33%
    17:00 +17°C° 0 mm 2 mps 575 mmHg 39%
    18:00 +16°C° 0 mm 2 mps 575 mmHg 45%
    19:00 +14°C° 0 mm 1 mps 575 mmHg 52%
    20:00 +13°C° 0 mm 1 mps 575 mmHg 58%
    21:00 +12°C° 0 mm 2 mps 575 mmHg 63%
    22:00 +12°C° 0 mm 2 mps 574 mmHg 68%
    23:00 +10°C° 0 mm 2 mps 574 mmHg 73%
    Show more